Content
SEND FEEDBACK

Daily
Averages
Monthly
Summary
Sweden

SUNDSVALL, SWEDEN


Home > Europe > Sweden
Elevation: 13 feet     Latitude: 62 31N     Longitude: 017 26E

WEATHER
 
SELECT A DAY
Number of Records: 271,527;   Date Range: 1/10/97 - 7/9/14
 
SHARE

PRINT THIS DATA

[ ← Previous Day ]
WEATHER ALMANAC - JANUARY 31, 2013
[ Next Day → ]
[ °C ]   °F
Weather ElementAverageHighLow
Temperature22.6 °F32 °F (1:50 pm)10.4 °F (11:50 pm)
Dewpoint21.3 °F30.2 °F (12:20 pm)9 °F (11:00 pm)
Humidity94.7 %100 % (12:20 am)78 % (3:00 pm)
Barometer28.88 in29.09 in (11:20 pm)28.68 in (12:20 am)
Wind Speed3.6 mph15.7 mph (2:00 pm)
Weather ElementAverage
Visibility9.6 mi
Wind DirectionSSW (188.3 °)

Weather ElementTotal
Precipitation---
Heating Degree Days43.8 (Base 65)
Averaged from 67 records on January 31, 2013
WEATHER CONDITIONS BREAKOUT
WIND DIRECTION BREAKOUT
WEATHER BY HOUR - JANUARY 31, 2013
[ °C ]   °F
Local TimeTemperatureDewpointHumidityBarometerVisibilityWind DirectionWind SpeedGust SpeedPrecipitationEventsConditions
12:20 AM19.4 °F19.4 °F100 %28.68 in0.1 miNW (310°)3.5 mph
12:50 AM19.4 °F17.6 °F93 %28.68 in0.1 miNW (320°)2.3 mphFogLight Freezing Fog
1:00 AM19.0 °F18.0 °F95 %28.70 in0.0 miNW (320°)2.2 mphFogPatches of Fog
1:20 AM19.4 °F19.4 °F100 %28.68 in6.2 miCalm
1:50 AM19.4 °F19.4 °F100 %28.68 in0.2 miCalm
2:00 AM20.0 °F19.0 °F94 %28.70 in1.0 miNorth (350°)2.2 mphFogFog
2:20 AM21.2 °F19.4 °F93 %28.68 in0.3 miWNW (300°)2.3 mph
2:50 AM21.2 °F21.2 °F100 %28.68 in0.2 miCalmFogLight Freezing Fog
3:00 AM21.0 °F20.0 °F96 %28.71 in2.0 miNorth (350°)2.2 mphFogFog
3:20 AM21.2 °F21.2 °F100 %28.71 in2.2 miNW (320°)2.3 mphOvercast
3:50 AM23.0 °F23.0 °F100 %28.71 in5.6 miCalmOvercast
4:20 AM24.8 °F23.0 °F93 %28.71 in6.2 miCalmOvercast
4:50 AM26.6 °F26.6 °F100 %28.71 in6.2 miNW (310°)2.3 mphOvercast
5:00 AM26.0 °F26.0 °F100 %28.73 in7.0 miWNW (300°)2.2 mphOvercast
5:20 AM26.6 °F26.6 °F100 %28.74 in6.2 miWNW (300°)2.3 mphMostly Cloudy
5:50 AM26.6 °F26.6 °F100 %28.74 in6.2 miNW (310°)2.3 mphScattered Clouds
6:00 AM25.0 °F25.0 °F100 %28.75 in7.0 miWNW (300°)2.2 mphPartly Cloudy
6:20 AM24.8 °F24.8 °F100 %28.74 inNW (310°)2.3 mphClear
6:50 AM24.8 °F23.0 °F93 %28.74 inNW (310°)1.2 mphClear
7:00 AM25.0 °F25.0 °F98 %28.77 in4.0 miNW (320°)2.2 mphMist
7:20 AM23.0 °F23.0 °F100 %28.77 in6.2 miCalmMostly Cloudy
7:50 AM21.2 °F21.2 °F100 %28.77 inCalmClear
8:00 AM22.0 °F21.0 °F96 %28.78 in3.0 miCalmMist
8:20 AM21.2 °F21.2 °F100 %28.77 inVariable2.3 mphClear
8:50 AM21.2 °F21.2 °F100 %28.80 inVariable2.3 mphClear
9:00 AM19.0 °F18.0 °F96 %28.81 in7.0 miNE (50°)2.2 mphFogPatches of Fog
9:20 AM19.4 °F17.6 °F93 %28.80 inCalmClear
9:50 AM19.4 °F19.4 °F100 %28.82 inCalmClear
10:20 AM19.4 °F19.4 °F100 %28.82 inVariable1.2 mphClear
10:50 AM17.6 °F15.8 °F93 %28.82 inSE (130°)2.3 mphClear
11:00 AM20.0 °F20.0 °F100 %28.86 in11.0 miSE (130°)2.2 mphRainDrizzle
11:20 AM21.2 °F21.2 °F100 %28.85 in6.2 miVariable1.2 mphMostly Cloudy
11:50 AM24.8 °F23.0 °F93 %28.88 in6.2 miVariable2.3 mphMostly Cloudy
12:00 PM27.0 °F27.0 °F100 %28.89 in22.0 miSW (230°)2.2 mphPartly Cloudy
12:20 PM30.2 °F30.2 °F100 %28.88 in6.2 miNW (310°)6.9 mphMostly Cloudy
12:50 PM30.2 °F30.2 °F100 %28.88 in6.2 miNW (310°)9.2 mphMostly Cloudy
1:00 PM31.0 °F30.0 °F96 %28.91 in31.0 miNW (310°)11.2 mphScattered Clouds
1:20 PM30.2 °F28.4 °F93 %28.91 in6.2 miWNW (300°)10.4 mphScattered Clouds
1:50 PM32.0 °F28.4 °F87 %28.94 in6.2 miWNW (300°)11.5 mphScattered Clouds
2:00 PM32.0 °F28.0 °F80 %28.95 in28.0 miWNW (300°)15.7 mphPartly Cloudy
2:20 PM32.0 °F28.4 °F87 %28.94 inWNW (300°)10.4 mphClear
2:50 PM30.2 °F26.6 °F86 %28.94 inWNW (300°)8.1 mphClear
3:00 PM30.0 °F26.0 °F78 %28.96 in31.0 miNW (310°)8.9 mph
3:20 PM30.2 °F26.6 °F86 %28.94 inNW (310°)8.1 mphClear
3:50 PM28.4 °F24.8 °F86 %28.97 inNW (320°)3.5 mphClear
4:20 PM28.4 °F24.8 °F86 %28.97 inWest (280°)4.6 mphClear
4:50 PM28.4 °F24.8 °F86 %29.00 inWest (280°)4.6 mphClear
5:00 PM27.0 °F24.0 °F85 %29.01 in31.0 miWNW (300°)8.9 mph
5:20 PM28.4 °F24.8 °F86 %29.00 inWNW (300°)6.9 mphClear
5:50 PM26.6 °F24.8 °F93 %29.00 inNW (310°)4.6 mphClear
6:00 PM25.0 °F24.0 °F93 %29.02 in31.0 miWNW (300°)6.7 mph
6:20 PM24.8 °F23.0 °F93 %29.00 inWNW (290°)4.6 mphClear
6:50 PM21.2 °F19.4 °F93 %29.00 inVariable2.3 mphClear
7:00 PM20.0 °F19.0 °F95 %29.04 in1.0 miNW (320°)2.2 mphMist
7:20 PM17.6 °F15.8 °F93 %29.03 inVariable2.3 mphClear
7:50 PM17.6 °F15.8 °F93 %29.03 inVariable2.3 mphClear
8:00 PM17.0 °F16.0 °F94 %29.04 in14.0 miESE (120°)2.2 mphFogFog
8:20 PM15.8 °F14.0 °F93 %29.03 inSSW (200°)3.5 mphClear
8:50 PM17.6 °F17.6 °F100 %29.03 inVariable1.2 mphClear
9:00 PM17.0 °F16.0 °F94 %29.06 in19.0 miNNW (330°)2.2 mph
9:20 PM15.8 °F15.8 °F100 %29.06 inWest (280°)3.5 mphClear
9:50 PM14.0 °F12.2 °F93 %29.06 inNorth (10°)4.6 mphClear
10:20 PM14.0 °F12.2 °F93 %29.06 inNNE (20°)5.8 mphClear
10:50 PM15.8 °F14.0 °F93 %29.06 inWest (260°)3.5 mphClear
11:00 PM11.0 °F9.0 °F86 %29.08 in31.0 mi°2.2 mph
11:20 PM12.2 °F12.2 °F100 %29.09 inVariable2.3 mphClear
11:50 PM10.4 °F10.4 °F100 %29.09 inVariable2.3 mphClear
Hourly data recorded from ESNN, located miles away from Sundsvall, Sweden







STORIES FROM OUR PARTNERS